| time (UTC) | temp C | wind direction | speed KPH | gust KPH | rain 1hr cm | rain 24hr cm | rain mn cm | humidity % | barometer mb |
| 20260507125530 | 16 | 59 | 1.6 | 3.2 | 0.00 | 0.00 | 0.00 | 91 | 1016.0 |
| 20260507125023 | 16 | 59 | 1.6 | 3.2 | 0.00 | 0.00 | 0.00 | 91 | 1016.0 |
| 20260507124517 | 16 | 59 | 1.6 | 3.2 | 0.00 | 0.00 | 0.00 | 98 | 1016.0 |
| 20260507124010 | 16 | 59 | 1.6 | 3.2 | 0.00 | 0.00 | 0.00 | 98 | 1016.0 |
| 20260507122959 | 17 | 314 | 0.0 | 3.2 | 0.00 | 0.00 | 0.00 | 98 | 1016.0 |
| 20260507122452 | 17 | 314 | 0.0 | 3.2 | 0.00 | 0.00 | 0.00 | 98 | 1016.0 |
| 20260507121946 | 18 | 314 | 0.0 | 3.2 | 0.00 | 0.00 | 0.00 | 98 | 1016.0 |
| 20260507121434 | 18 | 314 | 0.0 | 3.2 | 0.00 | 0.00 | 0.00 | 98 | 1016.0 |
| 20260507120933 | 18 | 314 | 0.0 | 3.2 | 0.00 | 0.00 | 0.00 | 98 | 1016.0 |
| 20260507120424 | 16 | 276 | 1.6 | 4.8 | 0.00 | 0.00 | 0.00 | 98 | 1016.0 |
| 20260507115912 | 17 | 276 | 1.6 | 4.8 | 0.00 | 0.00 | 0.00 | 98 | 1016.0 |
| 20260507115403 | 17 | 276 | 1.6 | 4.8 | 0.00 | 0.00 | 0.00 | 98 | 1016.0 |
| 20260507114855 | 18 | 276 | 1.6 | 4.8 | 0.00 | 0.00 | 0.00 | 98 | 1016.0 |
| 20260507114344 | 18 | 276 | 1.6 | 4.8 | 0.00 | 0.00 | 0.00 | 98 | 1016.0 |
| 20260507113838 | 15 | 249 | 1.6 | 4.8 | 0.00 | 0.00 | 0.00 | 98 | 1016.0 |
| 20260507113336 | 15 | 249 | 1.6 | 4.8 | 0.00 | 0.00 | 0.00 | 98 | 1016.0 |
| 20260507112824 | 16 | 249 | 1.6 | 4.8 | 0.00 | 0.00 | 0.00 | 98 | 1017.0 |
| 20260507112318 | 16 | 249 | 1.6 | 4.8 | 0.00 | 0.00 | 0.00 | 98 | 1017.0 |
| 20260507111809 | 17 | 249 | 1.6 | 4.8 | 0.00 | 0.00 | 0.00 | 98 | 1017.0 |
| 20260507111307 | 17 | 249 | 1.6 | 4.8 | 0.00 | 0.00 | 0.00 | 98 | 1017.0 |
| 20260507110800 | 17 | 249 | 1.6 | 4.8 | 0.00 | 0.00 | 0.00 | 98 | 1017.0 |
| 20260507110252 | 18 | 249 | 1.6 | 4.8 | 0.00 | 0.00 | 0.00 | 98 | 1017.0 |
| 20260507105745 | 18 | 249 | 1.6 | 4.8 | 0.00 | 0.00 | 0.00 | 98 | 1017.0 |
| 20260507105239 | 13 | 246 | 1.6 | 4.8 | 0.00 | 0.00 | 0.00 | 98 | 1017.0 |
| 20260507104732 | 13 | 246 | 1.6 | 4.8 | 0.00 | 0.00 | 0.00 | 98 | 1017.0 |
| 20260507104229 | 13 | 246 | 1.6 | 4.8 | 0.00 | 0.00 | 0.00 | 98 | 1017.0 |
| 20260507103723 | 14 | 246 | 1.6 | 4.8 | 0.00 | 0.00 | 0.00 | 98 | 1017.0 |
| 20260507103221 | 14 | 246 | 1.6 | 4.8 | 0.00 | 0.00 | 0.00 | 98 | 1017.0 |
| 20260507102712 | 15 | 246 | 1.6 | 4.8 | 0.00 | 0.00 | 0.00 | 98 | 1016.0 |
| 20260507102209 | 15 | 246 | 1.6 | 4.8 | 0.00 | 0.00 | 0.00 | 98 | 1016.0 |
| 20260507101705 | 15 | 246 | 1.6 | 4.8 | 0.00 | 0.00 | 0.00 | 98 | 1016.0 |
| 20260507101154 | 16 | 246 | 1.6 | 4.8 | 0.00 | 0.00 | 0.00 | 98 | 1016.0 |
| 20260507100652 | 16 | 246 | 1.6 | 4.8 | 0.00 | 0.00 | 0.00 | 98 | 1016.0 |
| 20260507100145 | 16 | 246 | 1.6 | 4.8 | 0.00 | 0.00 | 0.00 | 98 | 1016.0 |
| 20260507095639 | 17 | 246 | 1.6 | 4.8 | 0.00 | 0.00 | 0.00 | 98 | 1016.0 |
| 20260507095134 | 17 | 246 | 1.6 | 4.8 | 0.00 | 0.00 | 0.00 | 98 | 1016.0 |
| 20260507094125 | 18 | 246 | 1.6 | 4.8 | 0.00 | 0.00 | 0.00 | 98 | 1016.0 |
| 20260507093618 | 18 | 246 | 1.6 | 4.8 | 0.00 | 0.00 | 0.00 | 98 | 1016.0 |
| 20260507093111 | 13 | 224 | 1.6 | 1.6 | 0.00 | 0.00 | 0.00 | 97 | 1016.0 |
| 20260507092605 | 14 | 224 | 1.6 | 1.6 | 0.00 | 0.00 | 0.00 | 97 | 1016.0 |
| 20260507092058 | 14 | 224 | 1.6 | 1.6 | 0.00 | 0.00 | 0.00 | 97 | 1016.0 |
| 20260507091547 | 15 | 224 | 1.6 | 1.6 | 0.00 | 0.00 | 0.00 | 97 | 1016.0 |
| 20260507091040 | 15 | 224 | 1.6 | 1.6 | 0.00 | 0.00 | 0.00 | 97 | 1016.0 |
| 20260507090538 | 15 | 224 | 1.6 | 1.6 | 0.00 | 0.00 | 0.00 | 97 | 1016.0 |
| 20260507090037 | 15 | 224 | 1.6 | 1.6 | 0.00 | 0.00 | 0.00 | 97 | 1016.0 |
| 20260507085526 | 16 | 224 | 1.6 | 1.6 | 0.00 | 0.00 | 0.00 | 97 | 1016.0 |
| 20260507085019 | 16 | 224 | 1.6 | 1.6 | 0.00 | 0.00 | 0.00 | 97 | 1016.0 |
| 20260507084518 | 16 | 224 | 1.6 | 1.6 | 0.00 | 0.00 | 0.00 | 97 | 1016.0 |
| 20260507084011 | 16 | 224 | 1.6 | 1.6 | 0.00 | 0.00 | 0.00 | 97 | 1016.0 |
| 20260507083510 | 17 | 224 | 1.6 | 1.6 | 0.00 | 0.00 | 0.00 | 97 | 1016.0 |
| 20260507083003 | 17 | 224 | 1.6 | 1.6 | 0.00 | 0.00 | 0.00 | 97 | 1016.0 |
| 20260507082451 | 18 | 224 | 1.6 | 1.6 | 0.00 | 0.00 | 0.00 | 97 | 1016.0 |
| 20260507081950 | 18 | 224 | 1.6 | 1.6 | 0.00 | 0.00 | 0.00 | 97 | 1016.0 |
| 20260507081449 | 19 | 224 | 1.6 | 1.6 | 0.00 | 0.00 | 0.00 | 97 | 1016.0 |
| 20260507080942 | 20 | 224 | 1.6 | 3.2 | 0.00 | 0.00 | 0.00 | 97 | 1016.0 |
| 20260507080436 | 14 | 224 | 1.6 | 1.6 | 0.00 | 0.00 | 0.00 | 97 | 1016.0 |
| 20260507075929 | 15 | 224 | 1.6 | 1.6 | 0.00 | 0.00 | 0.00 | 97 | 1016.0 |
| 20260507075423 | 15 | 224 | 1.6 | 1.6 | 0.00 | 0.00 | 0.00 | 97 | 1016.0 |
| 20260507074917 | 16 | 224 | 1.6 | 3.2 | 0.00 | 0.00 | 0.00 | 97 | 1016.0 |
| 20260507074410 | 16 | 224 | 1.6 | 3.2 | 0.00 | 0.00 | 0.00 | 97 | 1016.0 |
| 20260507073904 | 21 | 224 | 1.6 | 3.2 | 0.00 | 0.00 | 0.00 | 96 | 1016.0 |
| 20260507073357 | 21 | 224 | 1.6 | 3.2 | 0.00 | 0.00 | 0.00 | 96 | 1016.0 |
| 20260507072851 | 21 | 210 | 1.6 | 3.2 | 0.00 | 0.00 | 0.00 | 96 | 1016.0 |
| 20260507072344 | 21 | 210 | 1.6 | 3.2 | 0.00 | 0.00 | 0.00 | 95 | 1016.0 |
| 20260507071838 | 21 | 210 | 1.6 | 3.2 | 0.00 | 0.00 | 0.00 | 93 | 1016.0 |
| 20260507071330 | 21 | 210 | 1.6 | 3.2 | 0.00 | 0.00 | 0.00 | 93 | 1016.0 |
| 20260507070824 | 21 | 210 | 1.6 | 3.2 | 0.00 | 0.00 | 0.00 | 93 | 1016.0 |
| 20260507070317 | 21 | 210 | 1.6 | 3.2 | 0.00 | 0.00 | 0.00 | 91 | 1016.0 |
| 20260507065811 | 21 | 210 | 1.6 | 3.2 | 0.00 | 0.00 | 0.00 | 91 | 1016.0 |
| 20260507065306 | 21 | 210 | 1.6 | 3.2 | 0.00 | 0.00 | 0.00 | 91 | 1016.0 |
| 20260507064758 | 21 | 210 | 1.6 | 3.2 | 0.00 | 0.00 | 0.00 | 91 | 1016.0 |
| 20260507064251 | 15 | 229 | 1.6 | 1.6 | 0.00 | 0.00 | 0.00 | 89 | 1016.0 |
| 20260507063742 | 15 | 229 | 1.6 | 1.6 | 0.00 | 0.00 | 0.00 | 89 | 1016.0 |
| 20260507063239 | 16 | 229 | 1.6 | 1.6 | 0.00 | 0.00 | 0.00 | 89 | 1017.0 |
| 20260507062733 | 16 | 229 | 1.6 | 1.6 | 0.00 | 0.00 | 0.00 | 89 | 1017.0 |
| 20260507062226 | 16 | 229 | 1.6 | 1.6 | 0.00 | 0.00 | 0.00 | 89 | 1017.0 |
| 20260507061714 | 16 | 229 | 1.6 | 1.6 | 0.00 | 0.00 | 0.00 | 89 | 1017.0 |
| 20260507061213 | 17 | 229 | 1.6 | 1.6 | 0.00 | 0.00 | 0.00 | 89 | 1017.0 |
| 20260507060706 | 17 | 229 | 1.6 | 1.6 | 0.00 | 0.00 | 0.00 | 89 | 1017.0 |
| 20260507060205 | 18 | 229 | 1.6 | 1.6 | 0.00 | 0.00 | 0.00 | 89 | 1017.0 |
| 20260507055658 | 18 | 229 | 1.6 | 1.6 | 0.00 | 0.00 | 0.00 | 89 | 1017.0 |
| 20260507055152 | 19 | 229 | 1.6 | 1.6 | 0.00 | 0.00 | 0.00 | 89 | 1017.0 |
| 20260507054137 | 20 | 229 | 1.6 | 1.6 | 0.00 | 0.00 | 0.00 | 89 | 1017.0 |
| 20260507053635 | 20 | 229 | 1.6 | 1.6 | 0.00 | 0.00 | 0.00 | 89 | 1017.0 |
| 20260507053124 | 20 | 229 | 1.6 | 1.6 | 0.00 | 0.00 | 0.00 | 89 | 1017.0 |
| 20260507051540 | 21 | 229 | 1.6 | 3.2 | 0.00 | 0.00 | 0.00 | 89 | 1017.0 |
| 20260507050516 | 15 | 229 | 1.6 | 1.6 | 0.00 | 0.00 | 0.00 | 81 | 1017.0 |
| 20260507050009 | 15 | 229 | 1.6 | 1.6 | 0.00 | 0.00 | 0.00 | 81 | 1017.0 |
| 20260507044814 | 16 | 229 | 1.6 | 1.6 | 0.00 | 0.00 | 0.00 | 81 | 1017.0 |
| 20260507044306 | 16 | 229 | 1.6 | 1.6 | 0.00 | 0.00 | 0.00 | 81 | 1017.0 |
| 20260507043803 | 17 | 229 | 1.6 | 1.6 | 0.00 | 0.00 | 0.00 | 81 | 1017.0 |
| 20260507043257 | 17 | 229 | 1.6 | 3.2 | 0.00 | 0.00 | 0.00 | 81 | 1017.0 |
| 20260507042750 | 18 | 12 | 0.0 | 3.2 | 0.00 | 0.00 | 0.00 | 81 | 1017.0 |
| 20260507042243 | 18 | 12 | 0.0 | 3.2 | 0.00 | 0.00 | 0.00 | 81 | 1017.0 |
| 20260507041211 | 19 | 12 | 0.0 | 3.2 | 0.00 | 0.00 | 0.00 | 81 | 1017.0 |
| 20260507040704 | 19 | 12 | 0.0 | 3.2 | 0.00 | 0.00 | 0.00 | 81 | 1017.0 |
| 20260507040158 | 20 | 12 | 0.0 | 3.2 | 0.00 | 0.00 | 0.00 | 81 | 1017.0 |
| 20260507035652 | 20 | 12 | 0.0 | 3.2 | 0.00 | 0.00 | 0.00 | 81 | 1017.0 |
| 20260507035150 | 21 | 12 | 0.0 | 3.2 | 0.00 | 0.00 | 0.00 | 81 | 1017.0 |
| 20260507034649 | 16 | 77 | 1.6 | 1.6 | 0.00 | 0.00 | 0.00 | 81 | 1017.0 |
| 20260507034142 | 16 | 77 | 1.6 | 1.6 | 0.00 | 0.00 | 0.00 | 81 | 1017.0 |
| 20260507033639 | 17 | 77 | 1.6 | 1.6 | 0.00 | 0.00 | 0.00 | 81 | 1017.0 |
| 20260507033133 | 17 | 77 | 1.6 | 1.6 | 0.00 | 0.00 | 0.00 | 81 | 1017.0 |
| 20260507032626 | 18 | 77 | 1.6 | 1.6 | 0.00 | 0.00 | 0.00 | 81 | 1017.0 |
| 20260507032125 | 18 | 77 | 1.6 | 1.6 | 0.00 | 0.00 | 0.00 | 81 | 1017.0 |
| 20260507031618 | 18 | 77 | 1.6 | 1.6 | 0.00 | 0.00 | 0.00 | 81 | 1017.0 |
| 20260507031112 | 19 | 77 | 1.6 | 1.6 | 0.00 | 0.00 | 0.00 | 81 | 1017.0 |
| 20260507030604 | 20 | 77 | 1.6 | 1.6 | 0.00 | 0.00 | 0.00 | 81 | 1017.0 |
| 20260507025056 | 20 | 77 | 1.6 | 1.6 | 0.00 | 0.00 | 0.00 | 81 | 1017.0 |
| 20260507024550 | 21 | 77 | 1.6 | 1.6 | 0.00 | 0.00 | 0.00 | 81 | 1017.0 |
| 20260507024045 | 21 | 77 | 1.6 | 1.6 | 0.00 | 0.00 | 0.00 | 81 | 1017.0 |
| 20260507023539 | 21 | 77 | 1.6 | 1.6 | 0.00 | 0.00 | 0.00 | 81 | 1017.0 |
| 20260507023032 | 22 | 77 | 1.6 | 3.2 | 0.00 | 0.00 | 0.00 | 81 | 1017.0 |